Time,TemperatureF,DewpointF,PressureIn,WindDirection,WindDirectionDegrees,WindSpeedMPH,WindSpeedGustMPH,Humidity,HourlyPrecipIn,Conditions,Clouds,dailyrainin,SoftwareType,DateUTC
2013-09-06 00:02:00,65.0,55.0,-100.00,SE,140,3.0,3.0,68,0.00,,,0.00,,2013-09-06 06:02:00,
2013-09-06 00:53:00,64.0,53.0,-100.00,SSW,206,4.0,6.0,68,0.00,,,0.00,,2013-09-06 06:53:00,
2013-09-06 01:01:00,64.0,53.0,-100.00,SSW,206,4.0,6.0,68,0.00,,,0.00,,2013-09-06 07:01:00,
2013-09-06 01:23:00,63.0,53.0,-100.00,SW,216,2.0,3.0,69,0.00,,,0.00,,2013-09-06 07:23:00,
2013-09-06 01:32:00,63.0,53.0,-100.00,SW,216,2.0,3.0,69,0.00,,,0.00,,2013-09-06 07:32:00,
2013-09-06 01:52:00,63.0,53.0,-100.00,SSW,196,6.0,7.0,70,0.00,,,0.00,,2013-09-06 07:52:00,
2013-09-06 02:03:00,63.0,53.0,-100.00,SSW,196,6.0,7.0,70,0.00,,,0.00,,2013-09-06 08:03:00,
2013-09-06 02:52:00,61.0,53.0,-100.00,SSW,195,4.0,6.0,73,0.00,,,0.00,,2013-09-06 08:52:00,
2013-09-06 03:01:00,61.0,53.0,-100.00,SSW,195,4.0,6.0,73,0.00,,,0.00,,2013-09-06 09:01:00,
2013-09-06 03:22:00,60.0,54.0,-100.00,SSW,206,5.0,7.0,79,0.00,,,0.00,,2013-09-06 09:22:00,
2013-09-06 03:33:00,60.0,54.0,-100.00,SSW,206,5.0,7.0,79,0.00,,,0.00,,2013-09-06 09:33:00,
2013-09-06 03:53:00,59.0,54.0,-100.00,SSW,212,4.0,6.0,84,0.00,,,0.00,,2013-09-06 09:53:00,
2013-09-06 04:03:00,59.0,54.0,-100.00,SSW,212,4.0,6.0,84,0.00,,,0.00,,2013-09-06 10:03:00,
2013-09-06 04:23:00,60.0,54.0,-100.00,SSW,199,6.0,8.0,81,0.00,,,0.00,,2013-09-06 10:23:00,
2013-09-06 04:32:00,60.0,54.0,-100.00,SSW,199,6.0,8.0,81,0.00,,,0.00,,2013-09-06 10:32:00,
2013-09-06 04:53:00,60.0,53.0,-100.00,SSE,150,1.0,2.0,79,0.00,,,0.00,,2013-09-06 10:53:00,
2013-09-06 05:02:00,60.0,53.0,-100.00,SSE,150,1.0,2.0,79,0.00,,,0.00,,2013-09-06 11:02:00,
2013-09-06 05:22:00,58.0,53.0,-100.00,SSE,160,1.0,2.0,82,0.00,,,0.00,,2013-09-06 11:22:00,
2013-09-06 05:33:00,58.0,53.0,-100.00,SSE,160,1.0,2.0,82,0.00,,,0.00,,2013-09-06 11:33:00,
2013-09-06 05:52:00,57.0,53.0,-100.00,SSW,206,6.0,8.0,84,0.00,,,0.00,,2013-09-06 11:52:00,
2013-09-06 06:02:00,57.0,53.0,-100.00,SSW,206,6.0,8.0,84,0.00,,,0.00,,2013-09-06 12:02:00,
2013-09-06 06:21:00,58.0,52.0,-100.00,South,181,3.0,4.0,80,0.00,,,0.00,,2013-09-06 12:21:00,
2013-09-06 06:32:00,58.0,52.0,-100.00,South,181,3.0,4.0,80,0.00,,,0.00,,2013-09-06 12:32:00,
2013-09-06 06:52:00,57.0,52.0,-100.00,SW,224,4.0,5.0,83,0.00,,,0.00,,2013-09-06 12:52:00,
2013-09-06 07:02:00,57.0,52.0,-100.00,SW,224,4.0,5.0,83,0.00,,,0.00,,2013-09-06 13:02:00,
2013-09-06 07:22:00,57.0,52.0,-100.00,NE,49,1.0,2.0,82,0.00,,,0.00,,2013-09-06 13:22:00,
2013-09-06 07:32:00,57.0,52.0,-100.00,NE,49,1.0,2.0,82,0.00,,,0.00,,2013-09-06 13:32:00,
2013-09-06 07:52:00,58.0,52.0,-100.00,North,0,2.0,3.0,82,0.00,,,0.00,,2013-09-06 13:52:00,
2013-09-06 08:02:00,58.0,52.0,-100.00,North,0,2.0,3.0,82,0.00,,,0.00,,2013-09-06 14:02:00,
2013-09-06 08:22:00,58.0,53.0,-100.00,North,10,2.0,2.0,82,0.00,,,0.00,,2013-09-06 14:22:00,
2013-09-06 08:32:00,58.0,53.0,-100.00,North,10,2.0,2.0,82,0.00,,,0.00,,2013-09-06 14:32:00,
2013-09-06 08:52:00,61.0,54.0,-100.00,ENE,72,2.0,2.0,76,0.00,,,0.00,,2013-09-06 14:52:00,
2013-09-06 09:01:00,61.0,54.0,-100.00,ENE,72,2.0,2.0,76,0.00,,,0.00,,2013-09-06 15:01:00,
2013-09-06 09:22:00,65.0,53.0,-100.00,NNW,344,3.0,4.0,66,0.00,,,0.00,,2013-09-06 15:22:00,
2013-09-06 09:34:00,65.0,53.0,-100.00,NNW,344,3.0,4.0,66,0.00,,,0.00,,2013-09-06 15:34:00,
2013-09-06 09:53:00,69.0,53.0,-100.00,NW,323,2.0,3.0,57,0.00,,,0.00,,2013-09-06 15:53:00,
2013-09-06 10:04:00,69.0,53.0,-100.00,NW,323,2.0,3.0,57,0.00,,,0.00,,2013-09-06 16:04:00,
2013-09-06 10:24:00,73.0,53.0,-100.00,East,99,1.0,2.0,49,0.00,,,0.00,,2013-09-06 16:24:00,
2013-09-06 10:33:00,73.0,53.0,-100.00,East,99,1.0,2.0,49,0.00,,,0.00,,2013-09-06 16:33:00,
2013-09-06 10:53:00,76.0,56.0,-100.00,SE,133,2.0,4.0,51,0.00,,,0.00,,2013-09-06 16:53:00,
2013-09-06 11:03:00,76.0,56.0,-100.00,SE,133,2.0,4.0,51,0.00,,,0.00,,2013-09-06 17:03:00,
2013-09-06 11:24:00,79.0,55.0,-100.00,SSE,160,4.0,6.0,43,0.00,,,0.00,,2013-09-06 17:24:00,
2013-09-06 11:34:00,79.0,55.0,-100.00,SSE,160,4.0,6.0,43,0.00,,,0.00,,2013-09-06 17:34:00,
2013-09-06 11:53:00,81.0,53.0,-100.00,South,176,7.0,10.0,38,0.00,,,0.00,,2013-09-06 17:53:00,
2013-09-06 12:01:00,81.0,53.0,-100.00,South,176,7.0,10.0,38,0.00,,,0.00,,2013-09-06 18:01:00,
2013-09-06 12:22:00,83.0,54.0,-100.00,SE,140,5.0,7.0,36,0.00,,,0.00,,2013-09-06 18:22:00,
2013-09-06 12:32:00,83.0,54.0,-100.00,SE,140,5.0,7.0,36,0.00,,,0.00,,2013-09-06 18:32:00,
2013-09-06 12:42:00,83.0,54.0,-100.00,SE,140,5.0,7.0,36,0.00,,,0.00,,2013-09-06 18:42:00,
2013-09-06 13:12:00,84.0,51.0,-100.00,SSE,167,5.0,10.0,32,0.00,,,0.00,,2013-09-06 19:12:00,
2013-09-06 13:43:00,86.0,53.0,-100.00,SSW,202,4.0,7.0,32,0.00,,,0.00,,2013-09-06 19:43:00,
2013-09-06 15:43:00,76.0,52.0,-100.00,NE,40,6.0,10.0,43,0.00,,,0.06,,2013-09-06 21:43:00,
2013-09-06 16:13:00,74.0,56.0,-100.00,NNW,333,3.0,5.0,55,0.00,,,0.06,,2013-09-06 22:13:00,
2013-09-06 16:23:00,74.0,56.0,-100.00,NNW,347,7.0,8.0,54,0.00,,,0.06,,2013-09-06 22:23:00,
2013-09-06 16:32:00,74.0,56.0,-100.00,NNW,347,7.0,8.0,54,0.00,,,0.06,,2013-09-06 22:32:00,
2013-09-06 16:44:00,74.0,56.0,-100.00,NNW,347,7.0,8.0,54,0.00,,,0.06,,2013-09-06 22:44:00,
2013-09-06 17:12:00,76.0,58.0,-100.00,NNW,328,6.0,9.0,53,0.00,,,0.06,,2013-09-06 23:12:00,
2013-09-06 17:23:00,78.0,55.0,-100.00,North,354,6.0,8.0,45,0.00,,,0.06,,2013-09-06 23:23:00,
2013-09-06 17:43:00,77.0,57.0,-100.00,North,0,6.0,7.0,51,0.00,,,0.06,,2013-09-06 23:43:00,
2013-09-06 18:12:00,76.0,56.0,-100.00,NNW,335,7.0,8.0,50,0.00,,,0.06,,2013-09-07 00:12:00,
2013-09-06 18:42:00,67.0,56.0,-100.00,SW,216,5.0,8.0,69,0.00,,,0.07,,2013-09-07 00:42:00,
2013-09-06 18:52:00,67.0,56.0,-100.00,SW,216,5.0,8.0,69,0.00,,,0.07,,2013-09-07 00:52:00,
2013-09-06 19:02:00,67.0,56.0,-100.00,SW,216,5.0,8.0,69,0.00,,,0.07,,2013-09-07 01:02:00,
2013-09-06 19:21:00,69.0,55.0,-100.00,NW,320,10.0,26.0,61,0.00,,,0.07,,2013-09-07 01:21:00,
2013-09-06 19:32:00,69.0,55.0,-100.00,NW,320,10.0,26.0,61,0.00,,,0.07,,2013-09-07 01:32:00,
2013-09-06 19:53:00,64.0,56.0,-100.00,ENE,72,14.0,15.0,75,0.00,,,0.09,,2013-09-07 01:53:00,
2013-09-06 20:02:00,64.0,56.0,-100.00,ENE,72,14.0,15.0,75,0.00,,,0.09,,2013-09-07 02:02:00,
2013-09-06 20:23:00,63.0,56.0,-100.00,NW,308,7.0,9.0,76,0.00,,,0.09,,2013-09-07 02:23:00,
2013-09-06 20:32:00,63.0,56.0,-100.00,NW,308,7.0,9.0,76,0.00,,,0.09,,2013-09-07 02:32:00,
2013-09-06 20:52:00,62.0,56.0,-100.00,WNW,289,13.0,15.0,82,0.00,,,0.10,,2013-09-07 02:52:00,
2013-09-06 21:02:00,62.0,56.0,-100.00,WNW,289,13.0,15.0,82,0.00,,,0.10,,2013-09-07 03:02:00,
2013-09-06 21:23:00,63.0,54.0,-100.00,ENE,69,9.0,13.0,71,0.00,,,0.10,,2013-09-07 03:23:00,
2013-09-06 21:34:00,63.0,54.0,-100.00,ENE,69,9.0,13.0,71,0.00,,,0.10,,2013-09-07 03:34:00,
2013-09-06 21:55:00,63.0,54.0,-100.00,SW,220,4.0,4.0,73,0.00,,,0.10,,2013-09-07 03:55:00,
2013-09-06 22:03:00,63.0,54.0,-100.00,SW,220,4.0,4.0,73,0.00,,,0.10,,2013-09-07 04:03:00,
2013-09-06 22:23:00,62.0,55.0,-100.00,SSW,206,4.0,5.0,77,0.00,,,0.10,,2013-09-07 04:23:00,
2013-09-06 22:34:00,62.0,55.0,-100.00,SSW,206,4.0,5.0,77,0.00,,,0.10,,2013-09-07 04:34:00,
2013-09-06 22:54:00,61.0,56.0,-100.00,SE,127,8.0,10.0,84,0.00,,,0.10,,2013-09-07 04:54:00,
2013-09-06 23:03:00,61.0,56.0,-100.00,SE,127,8.0,10.0,84,0.00,,,0.10,,2013-09-07 05:03:00,
2013-09-06 23:23:00,60.0,56.0,-100.00,SSW,192,7.0,8.0,87,0.00,,,0.10,,2013-09-07 05:23:00,
2013-09-06 23:33:00,60.0,56.0,-100.00,SSW,192,7.0,8.0,87,0.00,,,0.10,,2013-09-07 05:33:00,
2013-09-06 23:52:00,61.0,56.0,-100.00,SW,227,6.0,8.0,82,0.00,,,0.10,,2013-09-07 05:52:00,